Weather in Yablunitsa

Ukraine / Ivano-Frankovsk District     48°00′37″N   24°54′56″E
temp.,
°C
wind,
m/s
gust,
m/s
humid.,
%
clouds,
%
prec.,
mm/h
press.,
hPa
HPBL,
m
14 may, fri
fri1400:00+9ssw228564 0.0 100452
03:00+7ssw22919 0.1 100539
06:00+7ssw228897 0.0 100568
09:00+9ssw1379100 0.1 1005380
12:00+9s1388100 1.0 1006296
15:00+10sw3778100 1.2 10071123
18:00+8sw41078100 0.1 10081076
21:00+8wsw51478100 0.1 10081194
15 may, sat
sat1500:00+8wsw31182100 0.1 10091365
03:00+7wsw3888100 0.5 1010807
06:00+7ssw129198 0.2 101062
09:00+9sw148185 0.3 1012586
12:00+14wsw235781 0.1 10111478
15:00+14nnw135596 0.4 10101289
18:00+14nne12669 0.9 1010751
21:00+8ese119370 1.6 101110
16 may, sun
sun1600:00+6ssw229412 0.0 101226
03:00+6ssw229165 0.0 101226
06:00+6ssw2288100 0.0 101126
09:00+13s1266100 0.0 1009281
12:00+18sw1346100 0.5 10081804
15:00+15sw2372100 1.5 1008787
18:00+14ssw247297 1.1 1007685
21:00+10sw229288 2.1 100818
17 may, mon
mon1700:00+8sw239499 0.5 101063
03:00+6ssw229595 0.5 101132
06:00+6sw219671 0.0 101119
09:00+12wsw12731 0.0 1010604
12:00+18nnw12405 0.0 10081868
15:00+17nne234653 0.0 10081536
18:00+18wsw024018 0.1 10071740
21:00+11ssw2177100 0.4 100818
18 may, tue
tue1800:00+9sw2293100 1.4 100953
03:00+9s239411 1.4 100869
06:00+10sw399196 0.1 1007717
09:00+10sw3786100 0.4 1009878
12:00+10wsw2576100 0.3 1011918
15:00+10nw237692 0.4 1011625
18:00+13nw1263100 0.3 1010957
21:00+8wnw0090100 1.3 101110